Location: Fours
(44.3167°N, 6.7000°E)
Time: 12:54:24
(UTC+00:00)

Meteor 2-6 Rocket - Pass Details

Date: 30 November 2020
Orbit: 806 x 914 km, 81.3° (Epoch: 26 January)

Event Time Altitude Azimuth Distance (km) Brightness Sun altitude
Rises 17:33:51 0° 174° (S) 3,419 7.5 -17.1°
Reaches altitude 10° 17:36:21 10° 170° (S) 2,471 6.7 -17.5°
Maximum altitude 17:41:45 53° 95° (E) 1,021 4.2 -18.4°
Enters shadow 17:45:56 16° 23° (NNE) 2,016 5.8 -19.2°
